| time (UTC) | temp C | wind direction | speed KPH | gust KPH | rain 1hr cm | rain 24hr cm | rain mn cm | humidity % | barometer mb |
| 20260505110105 | 5 | 0 | 1.6 | 6.4 | 0.00 | 0.10 | 0.03 | 86 | 1013.4 |
| 20260505102048 | 5 | 0 | 1.6 | 8.0 | 0.00 | 0.10 | 0.03 | 82 | 1013.0 |
| 20260505101557 | 5 | 235 | 3.2 | 8.0 | 0.00 | 0.10 | 0.03 | 83 | 1012.9 |
| 20260505101048 | 5 | 157 | 0.0 | 6.4 | 0.00 | 0.10 | 0.03 | 83 | 1013.0 |
| 20260505100548 | 5 | 311 | 3.2 | 6.4 | 0.00 | 0.10 | 0.03 | 83 | 1012.9 |
| 20260505100054 | 5 | 281 | 1.6 | 6.4 | 0.00 | 0.10 | 0.03 | 84 | 1012.9 |
| 20260505095550 | 5 | 218 | 3.2 | 6.4 | 0.00 | 0.10 | 0.03 | 84 | 1012.9 |
| 20260505095049 | 5 | 234 | 0.0 | 4.8 | 0.00 | 0.10 | 0.03 | 85 | 1013.0 |
| 20260505094558 | 5 | 234 | 0.0 | 4.8 | 0.00 | 0.10 | 0.03 | 85 | 1013.0 |
| 20260505094048 | 5 | 0 | 0.0 | 4.8 | 0.00 | 0.10 | 0.03 | 85 | 1013.0 |
| 20260505093548 | 5 | 234 | 1.6 | 4.8 | 0.00 | 0.10 | 0.03 | 85 | 1013.0 |
| 20260505093055 | 5 | 0 | 0.0 | 1.6 | 0.00 | 0.10 | 0.03 | 85 | 1013.0 |
| 20260505092545 | 5 | 0 | 0.0 | 3.2 | 0.00 | 0.10 | 0.03 | 85 | 1013.0 |
| 20260505092048 | 5 | 0 | 0.0 | 4.8 | 0.00 | 0.10 | 0.03 | 85 | 1013.1 |
| 20260505091558 | 5 | 0 | 1.6 | 8.0 | 0.00 | 0.10 | 0.03 | 85 | 1013.0 |
| 20260505091048 | 5 | 0 | 1.6 | 8.0 | 0.00 | 0.10 | 0.03 | 85 | 1013.2 |
| 20260505090548 | 5 | 201 | 3.2 | 6.4 | 0.00 | 0.10 | 0.03 | 86 | 1013.2 |
| 20260505090057 | 5 | 203 | 0.0 | 4.8 | 0.00 | 0.10 | 0.03 | 86 | 1013.3 |
| 20260505085548 | 5 | 0 | 0.0 | 3.2 | 0.00 | 0.10 | 0.03 | 85 | 1013.2 |
| 20260505085048 | 5 | 0 | 0.0 | 3.2 | 0.00 | 0.10 | 0.03 | 85 | 1013.1 |
| 20260505084551 | 5 | 240 | 0.0 | 3.2 | 0.00 | 0.10 | 0.03 | 85 | 1013.2 |
| 20260505084048 | 5 | 0 | 0.0 | 3.2 | 0.00 | 0.10 | 0.03 | 85 | 1013.3 |
| 20260505083547 | 5 | 0 | 0.0 | 4.8 | 0.00 | 0.10 | 0.03 | 85 | 1013.6 |
| 20260505083053 | 5 | 0 | 0.0 | 4.8 | 0.00 | 0.10 | 0.03 | 85 | 1013.6 |
| 20260505082547 | 5 | 0 | 0.0 | 4.8 | 0.00 | 0.10 | 0.03 | 85 | 1013.7 |
| 20260505082049 | 5 | 0 | 0.0 | 4.8 | 0.00 | 0.10 | 0.03 | 85 | 1013.9 |
| 20260505081601 | 5 | 0 | 0.0 | 1.6 | 0.00 | 0.10 | 0.03 | 85 | 1013.9 |
| 20260505081045 | 5 | 0 | 0.0 | 1.6 | 0.00 | 0.10 | 0.03 | 85 | 1014.0 |
| 20260505080545 | 5 | 0 | 0.0 | 0.0 | 0.00 | 0.10 | 0.03 | 85 | 1014.0 |
| 20260505080053 | 5 | 0 | 0.0 | 3.2 | 0.00 | 0.10 | 0.03 | 85 | 1014.0 |
| 20260505075551 | 5 | 0 | 0.0 | 3.2 | 0.00 | 0.10 | 0.03 | 85 | 1013.9 |
| 20260505075048 | 5 | 0 | 0.0 | 3.2 | 0.00 | 0.10 | 0.03 | 85 | 1014.0 |
| 20260505074608 | 5 | 0 | 0.0 | 0.0 | 0.00 | 0.10 | 0.03 | 85 | 1014.2 |
| 20260505074048 | 5 | 0 | 0.0 | 0.0 | 0.00 | 0.10 | 0.03 | 85 | 1014.3 |
| 20260505073547 | 5 | 0 | 0.0 | 0.0 | 0.00 | 0.10 | 0.03 | 85 | 1014.3 |
| 20260505073054 | 5 | 0 | 0.0 | 0.0 | 0.00 | 0.10 | 0.03 | 85 | 1014.3 |
| 20260505072548 | 5 | 0 | 0.0 | 0.0 | 0.00 | 0.10 | 0.03 | 85 | 1014.4 |
| 20260505072048 | 5 | 0 | 0.0 | 0.0 | 0.00 | 0.10 | 0.03 | 85 | 1014.5 |
| 20260505071549 | 5 | 0 | 0.0 | 0.0 | 0.00 | 0.10 | 0.03 | 85 | 1014.5 |
| 20260505071048 | 5 | 0 | 0.0 | 0.0 | 0.00 | 0.10 | 0.03 | 85 | 1014.2 |
| 20260505070549 | 5 | 0 | 0.0 | 0.0 | 0.03 | 0.10 | 0.03 | 85 | 1014.5 |
| 20260505070055 | 5 | 0 | 0.0 | 0.0 | 0.03 | 0.10 | 0.03 | 85 | 1014.5 |
| 20260505065545 | 6 | 0 | 0.0 | 3.2 | 0.05 | 0.10 | 0.03 | 84 | 1014.4 |
| 20260505065044 | 6 | 0 | 0.0 | 3.2 | 0.05 | 0.10 | 0.03 | 84 | 1014.4 |
| 20260505064553 | 6 | 0 | 0.0 | 3.2 | 0.05 | 0.10 | 0.03 | 84 | 1014.5 |
| 20260505064048 | 6 | 0 | 0.0 | 3.2 | 0.05 | 0.10 | 0.03 | 83 | 1014.7 |
| 20260505063548 | 6 | 0 | 0.0 | 0.0 | 0.05 | 0.10 | 0.03 | 83 | 1014.5 |
| 20260505063058 | 6 | 0 | 0.0 | 0.0 | 0.05 | 0.10 | 0.03 | 83 | 1014.5 |
| 20260505062548 | 6 | 0 | 0.0 | 3.2 | 0.05 | 0.10 | 0.03 | 83 | 1014.6 |
| 20260505062048 | 6 | 0 | 0.0 | 3.2 | 0.05 | 0.10 | 0.03 | 83 | 1014.6 |
| 20260505061624 | 6 | 0 | 0.0 | 4.8 | 0.05 | 0.10 | 0.03 | 82 | 1014.5 |
| 20260505061048 | 6 | 0 | 0.0 | 4.8 | 0.05 | 0.10 | 0.03 | 82 | 1014.7 |
| 20260505060554 | 6 | 112 | 1.6 | 6.4 | 0.03 | 0.08 | 0.00 | 81 | 1014.6 |
| 20260505060055 | 6 | 0 | 0.0 | 6.4 | 0.03 | 0.08 | 0.00 | 79 | 1014.6 |
| 20260505055547 | 6 | 0 | 3.2 | 6.4 | 0.00 | 0.05 | 0.05 | 79 | 1014.6 |
| 20260505055049 | 6 | 0 | 0.0 | 3.2 | 0.00 | 0.05 | 0.05 | 78 | 1014.9 |
| 20260505054609 | 6 | 0 | 0.0 | 6.4 | 0.00 | 0.05 | 0.05 | 78 | 1015.1 |
| 20260505054044 | 6 | 0 | 0.0 | 11.3 | 0.00 | 0.05 | 0.05 | 77 | 1014.8 |
| 20260505053548 | 6 | 273 | 4.8 | 11.3 | 0.00 | 0.05 | 0.05 | 77 | 1014.8 |
| 20260505053056 | 6 | 293 | 4.8 | 12.9 | 0.00 | 0.05 | 0.05 | 76 | 1014.5 |
| 20260505052544 | 6 | 310 | 4.8 | 12.9 | 0.00 | 0.05 | 0.05 | 76 | 1014.7 |
| 20260505052044 | 6 | 346 | 3.2 | 11.3 | 0.00 | 0.05 | 0.05 | 76 | 1014.7 |
| 20260505051558 | 6 | 281 | 4.8 | 14.5 | 0.00 | 0.05 | 0.05 | 76 | 1014.7 |
| 20260505051048 | 6 | 263 | 4.8 | 14.5 | 0.00 | 0.05 | 0.05 | 76 | 1014.9 |
| 20260505050545 | 6 | 255 | 9.7 | 14.5 | 0.00 | 0.05 | 0.05 | 76 | 1014.9 |
| 20260505041551 | 6 | 247 | 6.4 | 12.9 | 0.00 | 0.05 | 0.05 | 78 | 1014.9 |
| 20260505041048 | 6 | 290 | 4.8 | 12.9 | 0.00 | 0.05 | 0.05 | 78 | 1014.7 |
| 20260505040544 | 6 | 284 | 1.6 | 8.0 | 0.00 | 0.05 | 0.05 | 78 | 1014.5 |
| 20260505040059 | 6 | 310 | 1.6 | 12.9 | 0.00 | 0.05 | 0.05 | 78 | 1014.5 |
| 20260505035546 | 6 | 247 | 6.4 | 14.5 | 0.00 | 0.05 | 0.05 | 78 | 1014.4 |
| 20260505035048 | 6 | 282 | 8.0 | 14.5 | 0.00 | 0.05 | 0.05 | 78 | 1014.2 |
| 20260505034554 | 6 | 306 | 3.2 | 6.4 | 0.00 | 0.05 | 0.05 | 78 | 1014.1 |
| 20260505034048 | 6 | 342 | 1.6 | 12.9 | 0.00 | 0.05 | 0.05 | 77 | 1014.1 |
| 20260505033548 | 6 | 352 | 4.8 | 12.9 | 0.03 | 0.05 | 0.05 | 75 | 1014.4 |
| 20260505033054 | 6 | 47 | 0.0 | 19.3 | 0.03 | 0.05 | 0.05 | 75 | 1014.0 |
| 20260505032547 | 6 | 0 | 4.8 | 19.3 | 0.03 | 0.05 | 0.05 | 76 | 1014.0 |
| 20260505032047 | 6 | 249 | 11.3 | 17.7 | 0.03 | 0.05 | 0.05 | 75 | 1014.5 |
| 20260505031558 | 6 | 289 | 11.3 | 16.1 | 0.03 | 0.05 | 0.05 | 76 | 1014.4 |
| 20260505031047 | 6 | 281 | 4.8 | 12.9 | 0.03 | 0.05 | 0.05 | 78 | 1014.3 |
| 20260505030547 | 6 | 333 | 6.4 | 12.9 | 0.03 | 0.05 | 0.05 | 77 | 1014.1 |
| 20260505030055 | 7 | 299 | 4.8 | 11.3 | 0.03 | 0.05 | 0.05 | 77 | 1013.9 |
| 20260505025545 | 7 | 0 | 1.6 | 14.5 | 0.03 | 0.05 | 0.05 | 77 | 1013.9 |
| 20260505025048 | 7 | 293 | 4.8 | 14.5 | 0.03 | 0.05 | 0.05 | 76 | 1013.9 |
| 20260505024610 | 7 | 258 | 6.4 | 14.5 | 0.03 | 0.05 | 0.05 | 76 | 1014.1 |
| 20260505024047 | 7 | 281 | 6.4 | 11.3 | 0.03 | 0.05 | 0.05 | 74 | 1014.0 |
| 20260505023547 | 7 | 338 | 6.4 | 11.3 | 0.00 | 0.03 | 0.03 | 72 | 1014.0 |
| 20260505023055 | 7 | 320 | 4.8 | 9.7 | 0.00 | 0.03 | 0.03 | 74 | 1013.9 |
| 20260505022549 | 7 | 0 | 3.2 | 9.7 | 0.00 | 0.03 | 0.03 | 72 | 1013.9 |
| 20260505022049 | 7 | 271 | 3.2 | 9.7 | 0.03 | 0.03 | 0.03 | 73 | 1013.8 |
| 20260505021609 | 7 | 269 | 3.2 | 8.0 | 0.03 | 0.03 | 0.03 | 74 | 1013.9 |
| 20260505021050 | 7 | 317 | 3.2 | 8.0 | 0.03 | 0.03 | 0.03 | 75 | 1013.9 |
| 20260505020548 | 7 | 313 | 1.6 | 11.3 | 0.03 | 0.03 | 0.03 | 74 | 1013.8 |
| 20260505020057 | 7 | 271 | 4.8 | 11.3 | 0.03 | 0.03 | 0.03 | 74 | 1013.9 |
| 20260505015547 | 7 | 259 | 3.2 | 6.4 | 0.03 | 0.03 | 0.03 | 74 | 1013.9 |
| 20260505015048 | 7 | 0 | 1.6 | 8.0 | 0.03 | 0.03 | 0.03 | 74 | 1013.9 |
| 20260505014552 | 7 | 296 | 3.2 | 8.0 | 0.03 | 0.03 | 0.03 | 71 | 1013.7 |
| 20260505014047 | 7 | 319 | 3.2 | 14.5 | 0.03 | 0.03 | 0.03 | 72 | 1013.6 |
| 20260505013547 | 7 | 242 | 3.2 | 20.9 | 0.03 | 0.03 | 0.03 | 72 | 1013.5 |
| 20260505013058 | 7 | 291 | 9.7 | 20.9 | 0.03 | 0.03 | 0.03 | 71 | 1013.7 |
| 20260505012547 | 7 | 296 | 11.3 | 22.5 | 0.03 | 0.03 | 0.03 | 70 | 1013.8 |
| 20260505012048 | 8 | 273 | 14.5 | 22.5 | 0.00 | 0.00 | 0.00 | 67 | 1013.8 |
| 20260505011557 | 8 | 275 | 12.9 | 20.9 | 0.00 | 0.00 | 0.00 | 65 | 1013.7 |
| 20260505011045 | 8 | 267 | 11.3 | 20.9 | 0.00 | 0.00 | 0.00 | 63 | 1013.8 |
| 20260505010550 | 9 | 281 | 12.9 | 20.9 | 0.00 | 0.00 | 0.00 | 60 | 1013.6 |
| 20260505010052 | 9 | 298 | 14.5 | 20.9 | 0.00 | 0.00 | 0.00 | 58 | 1013.8 |
| 20260505005548 | 10 | 315 | 12.9 | 20.9 | 0.00 | 0.00 | 0.00 | 55 | 1013.6 |
| 20260505005048 | 10 | 267 | 14.5 | 20.9 | 0.00 | 0.00 | 0.00 | 51 | 1013.5 |
| 20260505004552 | 10 | 255 | 6.4 | 16.1 | 0.00 | 0.00 | 0.00 | 49 | 1013.3 |
| 20260505004047 | 11 | 290 | 8.0 | 20.9 | 0.00 | 0.00 | 0.00 | 47 | 1013.0 |
| 20260505003548 | 11 | 325 | 11.3 | 22.5 | 0.00 | 0.00 | 0.00 | 47 | 1012.8 |
| 20260505003055 | 11 | 315 | 11.3 | 29.0 | 0.00 | 0.00 | 0.00 | 46 | 1013.0 |
| 20260505002547 | 11 | 330 | 12.9 | 29.0 | 0.00 | 0.00 | 0.00 | 46 | 1012.9 |
| 20260505002047 | 11 | 9 | 12.9 | 30.6 | 0.00 | 0.00 | 0.00 | 45 | 1012.8 |
| 20260505001549 | 11 | 304 | 3.2 | 41.8 | 0.00 | 0.00 | 0.00 | 45 | 1012.6 |
| 20260505001047 | 12 | 12 | 16.1 | 41.8 | 0.00 | 0.00 | 0.00 | 41 | 1012.4 |
| 20260505000545 | 12 | 343 | 20.9 | 38.6 | 0.00 | 0.00 | 0.00 | 38 | 1012.3 |
| 20260505000051 | 13 | 12 | 22.5 | 32.2 | 0.00 | 0.00 | 0.00 | 36 | 1012.2 |
| 20260504235544 | 13 | 352 | 14.5 | 30.6 | 0.00 | 0.00 | 0.00 | 35 | 1012.2 |
| 20260504235045 | 13 | 307 | 9.7 | 30.6 | 0.00 | 0.00 | 0.00 | 34 | 1011.9 |
| 20260504234551 | 13 | 28 | 14.5 | 30.6 | 0.00 | 0.00 | 0.00 | 33 | 1012.1 |
| 20260504234049 | 14 | 360 | 11.3 | 27.4 | 0.00 | 0.00 | 0.00 | 33 | 1011.6 |
| 20260504233548 | 14 | 352 | 11.3 | 27.4 | 0.00 | 0.00 | 0.00 | 32 | 1011.7 |
| 20260504233100 | 14 | 5 | 12.9 | 27.4 | 0.00 | 0.00 | 0.00 | 32 | 1011.8 |
| 20260504232544 | 15 | 317 | 4.8 | 22.5 | 0.00 | 0.00 | 0.00 | 32 | 1011.7 |
| 20260504232045 | 15 | 156 | 4.8 | 22.5 | 0.00 | 0.00 | 0.00 | 32 | 1011.7 |
| 20260504231553 | 15 | 339 | 4.8 | 20.9 | 0.00 | 0.00 | 0.00 | 32 | 1011.7 |
| 20260504231047 | 15 | 325 | 4.8 | 20.9 | 0.00 | 0.00 | 0.00 | 32 | 1011.7 |
| 20260504230548 | 15 | 335 | 11.3 | 17.7 | 0.00 | 0.00 | 0.00 | 31 | 1011.7 |
| 20260504230053 | 15 | 31 | 9.7 | 17.7 | 0.00 | 0.00 | 0.00 | 31 | 1011.7 |
| 20260504225549 | 15 | 352 | 8.0 | 22.5 | 0.00 | 0.00 | 0.00 | 31 | 1011.6 |
| 20260504225047 | 15 | 35 | 12.9 | 22.5 | 0.00 | 0.00 | 0.00 | 30 | 1011.6 |
| 20260504224552 | 15 | 360 | 6.4 | 17.7 | 0.00 | 0.00 | 0.00 | 30 | 1011.4 |
| 20260504224050 | 15 | 9 | 9.7 | 17.7 | 0.00 | 0.00 | 0.00 | 30 | 1011.5 |
| 20260504223547 | 15 | 25 | 8.0 | 29.0 | 0.00 | 0.00 | 0.00 | 29 | 1011.6 |
| 20260504223057 | 15 | 19 | 9.7 | 29.0 | 0.00 | 0.00 | 0.00 | 30 | 1011.6 |
| 20260504222549 | 15 | 19 | 12.9 | 20.9 | 0.00 | 0.00 | 0.00 | 29 | 1011.6 |
| 20260504222052 | 15 | 338 | 6.4 | 22.5 | 0.00 | 0.00 | 0.00 | 29 | 1011.5 |
| 20260504221604 | 15 | 360 | 9.7 | 22.5 | 0.00 | 0.00 | 0.00 | 30 | 1011.5 |
| 20260504221049 | 15 | 319 | 6.4 | 20.9 | 0.00 | 0.00 | 0.00 | 29 | 1011.4 |
| 20260504220544 | 15 | 350 | 9.7 | 22.5 | 0.00 | 0.00 | 0.00 | 29 | 1011.5 |
| 20260504220118 | 15 | 311 | 12.9 | 22.5 | 0.00 | 0.00 | 0.00 | 29 | 1011.5 |
| 20260504215547 | 15 | 310 | 9.7 | 22.5 | 0.00 | 0.00 | 0.00 | 27 | 1011.4 |
| 20260504215047 | 16 | 346 | 12.9 | 24.1 | 0.00 | 0.00 | 0.00 | 27 | 1011.4 |
| 20260504214551 | 16 | 16 | 11.3 | 24.1 | 0.00 | 0.00 | 0.00 | 27 | 1011.3 |
| 20260504214048 | 16 | 28 | 8.0 | 20.9 | 0.00 | 0.00 | 0.00 | 25 | 1011.2 |
| 20260504213548 | 16 | 298 | 12.9 | 22.5 | 0.00 | 0.00 | 0.00 | 25 | 1011.2 |
| 20260504213117 | 16 | 348 | 12.9 | 27.4 | 0.00 | 0.00 | 0.00 | 25 | 1011.2 |
| 20260504212549 | 16 | 292 | 8.0 | 27.4 | 0.00 | 0.00 | 0.00 | 25 | 1011.1 |
| 20260504212044 | 16 | 5 | 9.7 | 20.9 | 0.00 | 0.00 | 0.00 | 26 | 1011.2 |
| 20260504211557 | 16 | 5 | 11.3 | 20.9 | 0.00 | 0.00 | 0.00 | 26 | 1011.3 |
| 20260504211048 | 16 | 352 | 4.8 | 22.5 | 0.00 | 0.00 | 0.00 | 27 | 1011.3 |
| 20260504210549 | 16 | 346 | 11.3 | 24.1 | 0.00 | 0.00 | 0.00 | 28 | 1011.4 |
| 20260504210059 | 16 | 352 | 12.9 | 24.1 | 0.00 | 0.00 | 0.00 | 27 | 1011.4 |
| 20260504205548 | 16 | 344 | 8.0 | 22.5 | 0.00 | 0.00 | 0.00 | 28 | 1011.3 |
| 20260504205048 | 16 | 327 | 14.5 | 24.1 | 0.00 | 0.00 | 0.00 | 27 | 1011.4 |
| 20260504204604 | 16 | 313 | 12.9 | 30.6 | 0.00 | 0.00 | 0.00 | 28 | 1011.4 |
| 20260504204048 | 16 | 341 | 11.3 | 30.6 | 0.00 | 0.00 | 0.00 | 29 | 1011.4 |
| 20260504203549 | 16 | 327 | 14.5 | 30.6 | 0.00 | 0.00 | 0.00 | 26 | 1011.6 |
| 20260504203057 | 16 | 352 | 14.5 | 29.0 | 0.00 | 0.00 | 0.00 | 26 | 1011.6 |
| 20260504202548 | 17 | 323 | 11.3 | 32.2 | 0.00 | 0.00 | 0.00 | 25 | 1011.5 |
| 20260504202047 | 17 | 360 | 17.7 | 32.2 | 0.00 | 0.00 | 0.00 | 25 | 1011.4 |
| 20260504201603 | 18 | 360 | 17.7 | 32.2 | 0.00 | 0.00 | 0.00 | 23 | 1011.2 |
| 20260504201047 | 18 | 17 | 17.7 | 30.6 | 0.00 | 0.00 | 0.00 | 23 | 1011.4 |
| 20260504200548 | 18 | 228 | 6.4 | 27.4 | 0.00 | 0.00 | 0.00 | 23 | 1011.0 |
| 20260504200108 | 18 | 233 | 8.0 | 27.4 | 0.00 | 0.00 | 0.00 | 22 | 1011.2 |
| 20260504195549 | 17 | 217 | 12.9 | 29.0 | 0.00 | 0.00 | 0.00 | 22 | 1011.3 |
| 20260504195048 | 17 | 266 | 12.9 | 32.2 | 0.00 | 0.00 | 0.00 | 22 | 1011.4 |
| 20260504194555 | 17 | 198 | 19.3 | 32.2 | 0.00 | 0.00 | 0.00 | 22 | 1011.5 |
| 20260504194048 | 18 | 219 | 14.5 | 30.6 | 0.00 | 0.00 | 0.00 | 22 | 1011.5 |
| 20260504193548 | 17 | 215 | 4.8 | 20.9 | 0.00 | 0.00 | 0.00 | 21 | 1011.5 |
| 20260504193052 | 17 | 166 | 11.3 | 20.9 | 0.00 | 0.00 | 0.00 | 20 | 1011.5 |
| 20260504192547 | 17 | 173 | 6.4 | 24.1 | 0.00 | 0.00 | 0.00 | 22 | 1011.6 |
| 20260504192049 | 17 | 154 | 14.5 | 24.1 | 0.00 | 0.00 | 0.00 | 21 | 1011.7 |
| 20260504191559 | 17 | 200 | 12.9 | 24.1 | 0.00 | 0.00 | 0.00 | 22 | 1011.7 |
| 20260504191047 | 17 | 284 | 11.3 | 25.7 | 0.00 | 0.00 | 0.00 | 23 | 1011.7 |
| 20260504190548 | 16 | 207 | 11.3 | 25.7 | 0.00 | 0.00 | 0.00 | 21 | 1011.7 |
| 20260504190053 | 17 | 193 | 11.3 | 22.5 | 0.00 | 0.00 | 0.00 | 19 | 1011.6 |
| 20260504185547 | 17 | 277 | 8.0 | 22.5 | 0.00 | 0.00 | 0.00 | 18 | 1011.7 |
| 20260504185044 | 17 | 113 | 1.6 | 27.4 | 0.00 | 0.00 | 0.00 | 17 | 1011.6 |
| 20260504184557 | 17 | 28 | 8.0 | 27.4 | 0.00 | 0.00 | 0.00 | 19 | 1011.6 |
| 20260504184048 | 17 | 337 | 9.7 | 24.1 | 0.00 | 0.00 | 0.00 | 20 | 1011.8 |
| 20260504183549 | 17 | 95 | 6.4 | 24.1 | 0.00 | 0.00 | 0.00 | 19 | 1012.0 |
| 20260504183053 | 17 | 110 | 4.8 | 25.7 | 0.00 | 0.00 | 0.00 | 21 | 1012.3 |
| 20260504182548 | 16 | 230 | 9.7 | 25.7 | 0.00 | 0.00 | 0.00 | 21 | 1012.4 |
| 20260504182048 | 17 | 207 | 16.1 | 25.7 | 0.00 | 0.00 | 0.00 | 18 | 1012.5 |
| 20260504181554 | 17 | 169 | 8.0 | 25.7 | 0.00 | 0.00 | 0.00 | 16 | 1012.5 |
| 20260504181049 | 17 | 242 | 11.3 | 25.7 | 0.00 | 0.00 | 0.00 | 15 | 1012.4 |
| 20260504180550 | 17 | 277 | 9.7 | 22.5 | 0.00 | 0.00 | 0.00 | 17 | 1012.4 |
| 20260504180049 | 18 | 0 | 4.8 | 27.4 | 0.00 | 0.00 | 0.00 | 19 | 1012.4 |
| 20260504175547 | 17 | 247 | 8.0 | 27.4 | 0.00 | 0.00 | 0.00 | 19 | 1012.7 |
| 20260504175047 | 16 | 214 | 8.0 | 29.0 | 0.00 | 0.00 | 0.00 | 19 | 1012.8 |
| 20260504174553 | 16 | 203 | 12.9 | 32.2 | 0.00 | 0.00 | 0.00 | 20 | 1013.0 |
| 20260504174047 | 17 | 202 | 12.9 | 32.2 | 0.00 | 0.00 | 0.00 | 20 | 1013.0 |
| 20260504173546 | 17 | 208 | 12.9 | 32.2 | 0.00 | 0.00 | 0.00 | 20 | 1013.0 |
| 20260504173059 | 17 | 206 | 12.9 | 32.2 | 0.00 | 0.00 | 0.00 | 19 | 1013.0 |
| 20260504172546 | 17 | 352 | 9.7 | 22.5 | 0.00 | 0.00 | 0.00 | 21 | 1013.0 |
| 20260504172047 | 17 | 150 | 6.4 | 27.4 | 0.00 | 0.00 | 0.00 | 23 | 1013.2 |
| 20260504171557 | 17 | 250 | 11.3 | 32.2 | 0.00 | 0.00 | 0.00 | 23 | 1013.3 |
| 20260504171047 | 17 | 198 | 6.4 | 33.8 | 0.00 | 0.00 | 0.00 | 23 | 1013.3 |
| 20260504170546 | 16 | 200 | 19.3 | 33.8 | 0.00 | 0.00 | 0.00 | 23 | 1013.3 |
| 20260504151045 | 13 | 217 | 12.9 | 27.4 | 0.00 | 0.00 | 0.00 | 33 | 1014.3 |
| 20260504150548 | 12 | 225 | 11.3 | 27.4 | 0.00 | 0.00 | 0.00 | 33 | 1014.3 |
| 20260504141045 | 11 | 243 | 12.9 | 45.1 | 0.00 | 0.00 | 0.00 | 35 | 1014.2 |
| 20260504140545 | 11 | 249 | 14.5 | 45.1 | 0.00 | 0.00 | 0.00 | 34 | 1014.2 |
| 20260504130548 | 11 | 254 | 12.9 | 29.0 | 0.00 | 0.00 | 0.00 | 33 | 1014.1 |
| 20260504110545 | 8 | 213 | 12.9 | 27.4 | 0.00 | 0.00 | 0.00 | 35 | 1014.1 |